CYGNUS NG-15 (47689 NORAD) Tracking and Keplerian Element Data

This shows tracking and keplerian element data for the satellite.

Feedback or suggestion? Click here.




ElementValue
Catalog47689
NameCYGNUS NG-15
Epoch Orbit27130
Epoch Day56.60241222
Epoch Year2021
RAAN174.6318
Inclination51.6435
Eccentricity0.0002945
Argument of Perigee52.0711
Mean Anonmoly321.9096
Mean Motion15.49007129
Decay Rate2.054E-05
L11 47689U 21013A 21056.60241222 .00002054 00000-0 45416-4 0 9999
L22 47689 51.6435 174.6318 0002945 52.0711 321.9096 15.49007129271307

Live tracking and technical data element details for CYGNUS NG-15 (NORAD 47689). CYGNUS NG-15 can be tracked NOW for your location showing map with azimuth and elevation plus other details from your city location.

Track the satellite on the map from your city or location and see movement details for azimuth, elevation, latitude, longitude, range, height, and movement on the map or in text.







IsCatalogInMostPopularTable: catalog: 47689, numindb: -1

Insert: records affected: 1


GetName: 47689 CYGNUS NG-15

Hit Count: inserted at: Fri, 26 Feb 2021 09:51:18 GMT